Overview Statistics Trail Chart Weather Telemetry Raw packets
 

This is the latest recevied weather packets stored in our database for station/object S56VIL-11. If no packets are shown the sender has not sent any weather packets the latest 10 day(s).

<< 15 16 17 18 19 20 21 >>
Time Temp. Humidity Pressure Rain* Wind** Luminosity Snow
1788252888 22.78° C 61% 1034.2 hPa - - - -
1788251990 23.33° C 61% 1034.1 hPa - - - -
1788251088 22.78° C 61% 1034.1 hPa - - - -
1788250188 21.67° C 61% 1034.1 hPa - - - -
1788249288 21.11° C 62% 1033.9 hPa - - - -
1788248388 20.56° C 62% 1033.6 hPa - - - -
1788247488 20° C 62% 1033.7 hPa - - - -
1788246588 19.44° C 63% 1033.5 hPa - - - -
1788245688 18.89° C 63% 1033.5 hPa - - - -
1788244795 18.89° C 63% 1033.5 hPa - - - -
1788244789 18.89° C 63% 1033.5 hPa - - - -
1788243888 18.89° C 63% 1033.4 hPa - - - -
1788242988 18.33° C 64% 1033.3 hPa - - - -
1788242088 17.78° C 64% 1033.2 hPa - - - -
1788241188 17.78° C 64% 1033.3 hPa - - - -
1788240288 17.22° C 64% 1033.2 hPa - - - -
1788239388 17.22° C 64% 1033.1 hPa - - - -
1788238488 17.22° C 64% 1032.7 hPa - - - -
1788237587 17.22° C 64% 1032.6 hPa - - - -
1788236705 17.22° C 64% 1032.4 hPa - - - -
1788235787 17.78° C 64% 1032.2 hPa - - - -
1788234887 18.33° C 63% 1032.2 hPa - - - -
1788233987 18.33° C 63% 1032.1 hPa - - - -
1788233090 18.33° C 64% 1032.1 hPa - - - -
1788232187 18.89° C 63% 1032 hPa - - - -

* Rain since midnight (hover to see other rain measurements)
** Current wind speed in m/s (hover to see current wind gust speed)